Regional Weather Roundup
Issued by NWS Boston, MA

Current Version | Previous Version | Text Only | Print | Product List | Glossary On
Versions: 1 2 3 4 5 6 7 8 9 10 11 12 13 14 15 16 17 18 19 20 21 22 23 24 25 26 27 28 29 30 31 32 33 34 35 36 37 38 39 40 41 42 43 44 45 46 47
000 ASUS41 KBOX 220110 RWRBOX REGIONAL WEATHER ROUNDUP NATIONAL WEATHER SERVICE TAUNTON MA 900 PM EDT THU AUG 21 2014 NOTE: "FAIR" INDICATES FEW OR NO CLOUDS BELOW 12,000 FEET WITH NO SIGNIFICANT WEATHER AND/OR OBSTRUCTIONS TO VISIBILITY. THE FOLLOWING OBSERVATION LOCATIONS DO NOT REPORT PRESENT WEATHER...PROVINCETOWN... SMITHFIELD...BLOCK ISLAND...KEENE...AND OXFORD. MAZALL-220200- EASTERN MASSACHUSETTS CITY SKY/WX TMP DP RH WIND PRES REMARKS BOSTON MOCLDY 67 64 90 NE7 30.08S BEVERLY CLOUDY 66 63 90 NE6 30.09R LAWRENCE LGT RAIN 66 62 87 E6 30.11S BEDFORD CLOUDY 67 63 87 E8 30.07S BLUE HILL N/A 66 60 81 E7 30.09R NORWOOD CLOUDY 69 61 75 E3 30.08R MARSHFIELD PTCLDY 66 64 94 NE5 30.10R PLYMOUTH CLEAR 64 60 87 NE3 30.09R TAUNTON CLOUDY 69 62 78 CALM 30.07S NEW BEDFORD CLOUDY 66 62 87 NE5 30.06S $$ MAZALL-220200- CAPE COD AND THE ISLANDS CITY SKY/WX TMP DP RH WIND PRES REMARKS FALMOUTH CLEAR 64 61 88 NE6 30.08R HYANNIS CLEAR 64 59 83 CALM 30.06S CHATHAM CLEAR 68 59 73 NE5 30.08S PROVINCETOWN PTCLDY 63 61 94 MISG 30.09S NANTUCKET CLEAR 63 59 87 NE7 30.06F MARTHAS VNYRD CLEAR 59 55 87 CALM 30.07S $$ MAZALL-220200- CENTRAL AND WESTERN MASSACHUSETTS CITY SKY/WX TMP DP RH WIND PRES REMARKS WORCESTER CLOUDY 64 59 83 NE6 30.10R FITCHBURG LGT RAIN 62 54 74 NW6 30.11R ORANGE CLOUDY 64 60 87 NE5 30.09R SPRINGFIELD CLOUDY 70 61 74 CALM 30.05R WESTFIELD CLOUDY 69 65 86 N5 30.05S NORTH ADAMS CLOUDY 67 60 78 VRB6 30.05S PITTSFIELD CLOUDY 66 61 84 CALM 30.05F $$ RIZALL-220200- RHODE ISLAND CITY SKY/WX TMP DP RH WIND PRES REMARKS PROVIDENCE CLOUDY 69 62 78 S6 30.08R NEWPORT PTCLDY 66 61 84 CALM 30.07R BLOCK ISLAND PTCLDY 66 61 82 CALM 30.07R SMITHFIELD CLOUDY 66 59 77 CALM 30.08S WESTERLY CLOUDY 69 63 81 CALM 30.08R $$ CTZALL-220200- CONNECTICUT CITY SKY/WX TMP DP RH WIND PRES REMARKS BRADLEY INTL RAIN 71 65 81 S9 30.04R HARTFORD CLOUDY 71 63 75 S6 30.05R BRIDGEPORT CLOUDY 71 65 81 S8 30.05R DANBURY LGT RAIN 69 64 84 VRB5 30.06S GROTON MOCLDY 67 65 93 SE3 30.06R NEW HAVEN CLOUDY 73 63 70 SE9 30.06R CHESTER CLOUDY 68 63 83 SE3 30.08S MERIDEN CLOUDY 71 64 78 SE7 30.05S WILLIMANTIC CLOUDY 70 62 76 S6 30.07R $$ MEZ002-015-021-024-NHZ003-005-008-011-012-014-VTZ005-008-220200- NORTHERN NEW ENGLAND CITY SKY/WX TMP DP RH WIND PRES REMARKS PORTLAND ME MOCLDY 62 57 83 E5 30.11S BANGOR ME CLOUDY 67 57 70 SE6 30.13R CONCORD NH LGT RAIN 56 55 97 N5 30.12S MANCHESTER NH CLOUDY 60 56 86 NW5 30.08S NASHUA NH CLOUDY 61 55 80 NW6 30.11R PORTSMOUTH NH LGT RAIN 64 60 87 W1 30.09S JAFFREY NH LGT RAIN 58 55 90 VRB3 30.12R KEENE NH CLOUDY 63 48 59 N8 30.10R BURLINGTON VT CLOUDY 66 56 70 SE6 30.06R MT. WASHINGTON LGT RAIN 46 37 71 SE21 N/A $$ NYZ052-076-220200- EASTERN NEW YORK CITY SKY/WX TMP DP RH WIND PRES REMARKS ALBANY CLOUDY 72 65 78 SE6 30.00S NEW YORK CITY CLOUDY 73 61 65 SE9 30.03S $$ ANZALL-220200- MARINE OBSERVATIONS STATION/POSITION TIME TEMP WIND PRES VSBY WAVE AIR SEA DIR/SP/G HT/PER (UTC) (F) (DEG/KT/KT) (MB) (MI) (FT/S) BOSTON BUOY 0050 67 67 70/ 8/ 10 1018.8R 2/ 6 BUZZARDS BAY 0000 120/ 8/ 9 1018.7F NANTUCKET SOUND 0050 68 71 60/ 10/ 12 1017.7F 1/ 6 MASS BAY-STELLWA 0004 67 67 70/ 10/ 12 N/A 1 7/8 2/ 5 ISLE OF SHOALS 0100 65 30/ 4/ 4 1018.9R S OF BLOCK IS 0008 69 N/A 3/ 7 $$ ......................KEY......................... SKY/WX - SKY CONDITION/PRESENT WEATHER TMP - TEMPERATURE IN FAHRENHEIT DWPT - DEWPOINT IN FAHRENHEIT RH - RELATIVE HUMIDITY IN PERCENT WIND - DIRECTION AND SPEED IN MPH PRES - MEAN SEA LEVEL PRESSURE IN INCHES OF HG WCI - WIND CHILL INDEX VSB - VISIBILITY IN MILES HX - HEAT INDEX TC - TEMPERATURE IN CELSIUS VRB - VARIABLE WIND DIRECTION N/A - NOT AVAILABLE

USA.gov is the U.S. government's official web portal to all federal, state and local government web resources and services.